| time (UTC) | temp F | wind direction | speed MPH | gust MPH | rain 1hr in | rain 24hr in | rain mn in | humidity % | barometer mb |
| 20260507150504 | 61 | 142 | 9.0 | 16.0 | 0.00 | 0.02 | 0.02 | 66 | 1010.9 |
| 20260507150005 | 61 | 132 | 10.0 | 17.0 | 0.00 | 0.02 | 0.02 | 66 | 1011.0 |
| 20260507145503 | 61 | 126 | 11.0 | 18.0 | 0.00 | 0.02 | 0.02 | 66 | 1010.9 |
| 20260507145003 | 61 | 117 | 12.0 | 18.0 | 0.00 | 0.02 | 0.02 | 66 | 1010.8 |
| 20260507144504 | 62 | 114 | 11.0 | 17.0 | 0.00 | 0.02 | 0.02 | 65 | 1010.8 |
| 20260507144003 | 62 | 129 | 10.0 | 17.0 | 0.00 | 0.02 | 0.02 | 65 | 1010.8 |
| 20260507143503 | 61 | 134 | 11.0 | 19.0 | 0.00 | 0.02 | 0.02 | 66 | 1010.8 |
| 20260507143004 | 61 | 128 | 11.0 | 19.0 | 0.00 | 0.02 | 0.02 | 65 | 1010.9 |
| 20260507142504 | 62 | 125 | 11.0 | 17.0 | 0.00 | 0.02 | 0.02 | 65 | 1010.9 |
| 20260507142003 | 62 | 121 | 11.0 | 17.0 | 0.00 | 0.02 | 0.02 | 65 | 1010.9 |
| 20260507141714 | 62 | 120 | 10.0 | 17.0 | 0.00 | 0.02 | 0.02 | 65 | 1010.8 |
| 20260507141004 | 62 | 126 | 10.0 | 18.0 | 0.00 | 0.02 | 0.02 | 66 | 1011.0 |
| 20260507140503 | 61 | 118 | 12.0 | 18.0 | 0.00 | 0.02 | 0.02 | 65 | 1011.0 |
| 20260507140215 | 62 | 115 | 11.0 | 18.0 | 0.00 | 0.02 | 0.02 | 65 | 1011.0 |
| 20260507135504 | 62 | 113 | 11.0 | 16.0 | 0.00 | 0.02 | 0.02 | 65 | 1011.1 |
| 20260507135003 | 62 | 112 | 12.0 | 18.0 | 0.00 | 0.02 | 0.02 | 65 | 1011.0 |
| 20260507134503 | 61 | 112 | 13.0 | 18.0 | 0.00 | 0.02 | 0.02 | 66 | 1011.0 |
| 20260507134003 | 62 | 116 | 11.0 | 18.0 | 0.00 | 0.02 | 0.02 | 65 | 1011.3 |
| 20260507133503 | 62 | 124 | 10.0 | 17.0 | 0.00 | 0.02 | 0.02 | 66 | 1011.3 |
| 20260507133215 | 62 | 122 | 10.0 | 17.0 | 0.00 | 0.02 | 0.02 | 67 | 1011.4 |
| 20260507132714 | 62 | 115 | 11.0 | 21.0 | 0.00 | 0.02 | 0.02 | 68 | 1011.4 |
| 20260507132003 | 62 | 115 | 12.0 | 21.0 | 0.00 | 0.02 | 0.02 | 67 | 1011.5 |
| 20260507131714 | 62 | 121 | 11.0 | 18.0 | 0.00 | 0.02 | 0.02 | 69 | 1011.4 |
| 20260507131212 | 62 | 123 | 12.0 | 17.0 | 0.00 | 0.02 | 0.02 | 69 | 1011.5 |
| 20260507130503 | 62 | 124 | 11.0 | 19.0 | 0.00 | 0.02 | 0.02 | 68 | 1011.5 |
| 20260507130004 | 62 | 125 | 10.0 | 21.0 | 0.00 | 0.02 | 0.02 | 67 | 1011.6 |
| 20260507125504 | 63 | 128 | 11.0 | 21.0 | 0.00 | 0.02 | 0.02 | 68 | 1011.6 |
| 20260507125004 | 62 | 138 | 11.0 | 18.0 | 0.00 | 0.02 | 0.02 | 69 | 1011.6 |
| 20260507124503 | 63 | 142 | 10.0 | 18.0 | 0.00 | 0.02 | 0.02 | 68 | 1011.6 |
| 20260507124003 | 63 | 140 | 9.0 | 16.0 | 0.00 | 0.02 | 0.02 | 68 | 1011.6 |
| 20260507123503 | 63 | 131 | 9.0 | 17.0 | 0.00 | 0.02 | 0.02 | 69 | 1011.7 |
| 20260507123004 | 62 | 125 | 10.0 | 17.0 | 0.00 | 0.02 | 0.02 | 69 | 1011.6 |
| 20260507122504 | 62 | 123 | 9.0 | 16.0 | 0.00 | 0.02 | 0.02 | 68 | 1011.5 |
| 20260507122004 | 62 | 129 | 9.0 | 14.0 | 0.00 | 0.02 | 0.02 | 71 | 1011.6 |
| 20260507121503 | 61 | 130 | 9.0 | 14.0 | 0.00 | 0.02 | 0.02 | 70 | 1011.6 |
| 20260507121003 | 61 | 126 | 10.0 | 19.0 | 0.00 | 0.02 | 0.02 | 70 | 1011.6 |
| 20260507120503 | 61 | 117 | 10.0 | 19.0 | 0.00 | 0.02 | 0.02 | 71 | 1011.5 |
| 20260507120005 | 61 | 113 | 10.0 | 16.0 | 0.00 | 0.02 | 0.02 | 70 | 1011.6 |
| 20260507115503 | 61 | 118 | 10.0 | 18.0 | 0.00 | 0.02 | 0.02 | 70 | 1011.7 |
| 20260507115003 | 61 | 123 | 11.0 | 18.0 | 0.00 | 0.02 | 0.02 | 71 | 1011.7 |
| 20260507114503 | 61 | 124 | 10.0 | 18.0 | 0.00 | 0.02 | 0.02 | 70 | 1011.8 |
| 20260507114003 | 61 | 128 | 8.0 | 15.0 | 0.00 | 0.02 | 0.02 | 70 | 1011.7 |
| 20260507113503 | 61 | 135 | 8.0 | 14.0 | 0.00 | 0.02 | 0.02 | 70 | 1011.8 |
| 20260507113214 | 61 | 132 | 7.0 | 14.0 | 0.00 | 0.02 | 0.02 | 70 | 1011.8 |
| 20260507112503 | 61 | 130 | 8.0 | 13.0 | 0.00 | 0.02 | 0.02 | 70 | 1011.9 |
| 20260507112214 | 61 | 129 | 9.0 | 14.0 | 0.00 | 0.02 | 0.02 | 71 | 1011.9 |
| 20260507111713 | 61 | 122 | 10.0 | 15.0 | 0.00 | 0.02 | 0.02 | 71 | 1012.0 |
| 20260507111004 | 61 | 123 | 10.0 | 15.0 | 0.00 | 0.02 | 0.02 | 73 | 1012.1 |
| 20260507110713 | 61 | 131 | 9.0 | 15.0 | 0.00 | 0.02 | 0.02 | 73 | 1012.2 |
| 20260507110005 | 60 | 128 | 8.0 | 12.0 | 0.00 | 0.02 | 0.02 | 73 | 1012.3 |
| 20260507105503 | 60 | 126 | 9.0 | 14.0 | 0.00 | 0.02 | 0.02 | 72 | 1012.3 |
| 20260507105003 | 61 | 133 | 8.0 | 14.0 | 0.00 | 0.02 | 0.02 | 72 | 1012.3 |
| 20260507104504 | 62 | 125 | 7.0 | 11.0 | 0.00 | 0.02 | 0.02 | 71 | 1012.2 |
| 20260507104214 | 62 | 110 | 7.0 | 14.0 | 0.00 | 0.02 | 0.02 | 71 | 1012.2 |
| 20260507103504 | 61 | 115 | 10.0 | 16.0 | 0.00 | 0.02 | 0.02 | 72 | 1012.2 |
| 20260507103004 | 60 | 125 | 10.0 | 16.0 | 0.00 | 0.02 | 0.02 | 73 | 1012.2 |
| 20260507102503 | 61 | 121 | 8.0 | 15.0 | 0.00 | 0.02 | 0.02 | 73 | 1012.3 |
| 20260507102003 | 61 | 119 | 8.0 | 17.0 | 0.00 | 0.02 | 0.02 | 74 | 1012.3 |
| 20260507101503 | 60 | 120 | 9.0 | 17.0 | 0.00 | 0.02 | 0.02 | 76 | 1012.4 |
| 20260507101004 | 60 | 128 | 10.0 | 14.0 | 0.00 | 0.02 | 0.02 | 76 | 1012.6 |
| 20260507100503 | 59 | 131 | 10.0 | 14.0 | 0.00 | 0.02 | 0.02 | 76 | 1012.6 |
| 20260507100005 | 59 | 131 | 10.0 | 14.0 | 0.00 | 0.02 | 0.02 | 76 | 1012.6 |
| 20260507095503 | 59 | 128 | 8.0 | 14.0 | 0.00 | 0.02 | 0.02 | 76 | 1012.7 |
| 20260507095003 | 60 | 127 | 7.0 | 14.0 | 0.00 | 0.02 | 0.02 | 76 | 1012.6 |
| 20260507094504 | 59 | 145 | 6.0 | 12.0 | 0.00 | 0.02 | 0.02 | 77 | 1012.6 |
| 20260507094213 | 60 | 145 | 6.0 | 11.0 | 0.00 | 0.02 | 0.02 | 76 | 1012.6 |
| 20260507093504 | 60 | 120 | 6.0 | 11.0 | 0.00 | 0.02 | 0.02 | 76 | 1012.5 |
| 20260507093004 | 59 | 115 | 6.0 | 11.0 | 0.00 | 0.02 | 0.02 | 78 | 1012.5 |
| 20260507092504 | 59 | 105 | 5.0 | 12.0 | 0.00 | 0.02 | 0.02 | 78 | 1012.5 |
| 20260507092004 | 59 | 99 | 4.0 | 12.0 | 0.00 | 0.02 | 0.02 | 78 | 1012.5 |
| 20260507091714 | 59 | 101 | 5.0 | 12.0 | 0.00 | 0.02 | 0.02 | 79 | 1012.4 |
| 20260507091003 | 59 | 104 | 4.0 | 12.0 | 0.00 | 0.02 | 0.02 | 77 | 1012.5 |
| 20260507090503 | 59 | 107 | 1.0 | 8.0 | 0.00 | 0.02 | 0.02 | 78 | 1012.4 |
| 20260507090005 | 59 | 126 | 2.0 | 8.0 | 0.00 | 0.02 | 0.02 | 79 | 1012.4 |
| 20260507085504 | 59 | 152 | 3.0 | 8.0 | 0.00 | 0.02 | 0.02 | 78 | 1012.5 |
| 20260507085003 | 58 | 145 | 3.0 | 9.0 | 0.00 | 0.02 | 0.02 | 80 | 1012.4 |
| 20260507084503 | 57 | 132 | 4.0 | 9.0 | 0.00 | 0.02 | 0.02 | 79 | 1012.5 |
| 20260507084003 | 57 | 138 | 5.0 | 9.0 | 0.00 | 0.02 | 0.02 | 80 | 1012.6 |
| 20260507083503 | 57 | 129 | 5.0 | 9.0 | 0.00 | 0.02 | 0.02 | 80 | 1012.6 |
| 20260507083004 | 57 | 134 | 5.0 | 10.0 | 0.00 | 0.02 | 0.02 | 79 | 1012.6 |
| 20260507082503 | 57 | 145 | 5.0 | 10.0 | 0.00 | 0.02 | 0.02 | 81 | 1012.7 |
| 20260507082004 | 56 | 136 | 5.0 | 9.0 | 0.00 | 0.02 | 0.02 | 82 | 1012.8 |
| 20260507081714 | 56 | 148 | 6.0 | 9.0 | 0.00 | 0.02 | 0.02 | 81 | 1012.7 |
| 20260507081003 | 56 | 148 | 6.0 | 10.0 | 0.00 | 0.02 | 0.02 | 80 | 1012.8 |
| 20260507080503 | 56 | 139 | 5.0 | 9.0 | 0.00 | 0.02 | 0.02 | 81 | 1012.8 |
| 20260507080005 | 56 | 131 | 5.0 | 10.0 | 0.00 | 0.02 | 0.02 | 79 | 1012.9 |
| 20260507075504 | 56 | 106 | 5.0 | 10.0 | 0.00 | 0.02 | 0.02 | 80 | 1012.9 |
| 20260507075003 | 56 | 105 | 5.0 | 9.0 | 0.00 | 0.02 | 0.02 | 80 | 1013.0 |
| 20260507074503 | 56 | 124 | 6.0 | 10.0 | 0.00 | 0.02 | 0.02 | 81 | 1012.9 |
| 20260507074215 | 56 | 135 | 5.0 | 10.0 | 0.00 | 0.02 | 0.02 | 81 | 1012.9 |
| 20260507073503 | 56 | 129 | 6.0 | 11.0 | 0.00 | 0.02 | 0.02 | 80 | 1012.9 |
| 20260507073004 | 56 | 119 | 5.0 | 11.0 | 0.00 | 0.02 | 0.02 | 80 | 1012.8 |
| 20260507072503 | 56 | 105 | 4.0 | 9.0 | 0.00 | 0.02 | 0.02 | 81 | 1012.8 |
| 20260507072003 | 55 | 109 | 2.0 | 7.0 | 0.00 | 0.02 | 0.02 | 83 | 1012.7 |
| 20260507071504 | 54 | 113 | 1.0 | 5.0 | 0.00 | 0.02 | 0.02 | 85 | 1012.7 |
| 20260507071003 | 54 | 78 | 1.0 | 3.0 | 0.00 | 0.02 | 0.02 | 87 | 1012.7 |
| 20260507070503 | 52 | 5 | 1.0 | 3.0 | 0.00 | 0.02 | 0.02 | 93 | 1012.7 |
| 20260507070009 | 51 | 304 | 0.0 | 2.0 | 0.00 | 0.02 | 0.02 | 95 | 1012.6 |
| 20260507065504 | 50 | 304 | 1.0 | 3.0 | 0.00 | 0.02 | 0.02 | 96 | 1012.6 |
| 20260507065003 | 50 | 304 | 1.0 | 3.0 | 0.00 | 0.02 | 0.02 | 97 | 1012.6 |
| 20260507064504 | 49 | 304 | 1.0 | 3.0 | 0.00 | 0.02 | 0.02 | 97 | 1012.6 |
| 20260507064003 | 48 | 304 | 2.0 | 3.0 | 0.00 | 0.02 | 0.02 | 97 | 1012.6 |
| 20260507063503 | 48 | 304 | 1.0 | 3.0 | 0.00 | 0.02 | 0.02 | 97 | 1012.7 |
| 20260507063004 | 48 | 304 | 1.0 | 3.0 | 0.00 | 0.02 | 0.02 | 97 | 1012.7 |
| 20260507062503 | 47 | 305 | 1.0 | 3.0 | 0.00 | 0.02 | 0.02 | 97 | 1012.7 |
| 20260507062004 | 47 | 306 | 1.0 | 3.0 | 0.00 | 0.02 | 0.02 | 97 | 1012.7 |
| 20260507061503 | 46 | 303 | 2.0 | 4.0 | 0.00 | 0.02 | 0.02 | 97 | 1012.6 |
| 20260507061214 | 46 | 302 | 2.0 | 4.0 | 0.00 | 0.02 | 0.02 | 97 | 1012.6 |
| 20260507060503 | 45 | 300 | 2.0 | 4.0 | 0.00 | 0.02 | 0.02 | 97 | 1012.5 |
| 20260507060004 | 45 | 299 | 3.0 | 4.0 | 0.01 | 0.02 | 0.02 | 97 | 1012.5 |
| 20260507055504 | 45 | 301 | 2.0 | 4.0 | 0.01 | 0.02 | 0.02 | 97 | 1012.5 |
| 20260507055004 | 44 | 306 | 2.0 | 4.0 | 0.01 | 0.02 | 0.02 | 97 | 1012.4 |
| 20260507054503 | 44 | 304 | 2.0 | 4.0 | 0.01 | 0.02 | 0.02 | 97 | 1012.5 |
| 20260507054214 | 44 | 300 | 2.0 | 4.0 | 0.01 | 0.02 | 0.02 | 97 | 1012.5 |
| 20260507053504 | 44 | 297 | 1.0 | 4.0 | 0.01 | 0.02 | 0.02 | 97 | 1012.5 |
| 20260507053005 | 44 | 292 | 1.0 | 4.0 | 0.01 | 0.02 | 0.02 | 97 | 1012.5 |
| 20260507052503 | 43 | 287 | 1.0 | 3.0 | 0.01 | 0.02 | 0.02 | 97 | 1012.5 |
| 20260507052003 | 43 | 290 | 2.0 | 4.0 | 0.01 | 0.02 | 0.02 | 97 | 1012.4 |
| 20260507051504 | 43 | 293 | 2.0 | 4.0 | 0.01 | 0.02 | 0.02 | 97 | 1012.4 |
| 20260507051003 | 43 | 293 | 2.0 | 4.0 | 0.01 | 0.02 | 0.02 | 97 | 1012.4 |
| 20260507050504 | 44 | 290 | 2.0 | 4.0 | 0.01 | 0.02 | 0.02 | 97 | 1012.4 |
| 20260507050004 | 44 | 288 | 1.0 | 3.0 | 0.00 | 0.01 | 0.01 | 97 | 1012.4 |
| 20260507045503 | 44 | 289 | 1.0 | 3.0 | 0.00 | 0.01 | 0.01 | 97 | 1012.3 |
| 20260507045003 | 44 | 288 | 2.0 | 4.0 | 0.00 | 0.01 | 0.01 | 97 | 1012.3 |
| 20260507044503 | 44 | 290 | 2.0 | 4.0 | 0.00 | 0.01 | 0.01 | 97 | 1012.2 |
| 20260507044003 | 44 | 299 | 1.0 | 4.0 | 0.00 | 0.01 | 0.01 | 97 | 1012.3 |
| 20260507043715 | 44 | 305 | 2.0 | 4.0 | 0.00 | 0.01 | 0.01 | 97 | 1012.2 |
| 20260507043004 | 44 | 318 | 1.0 | 3.0 | 0.00 | 0.01 | 0.01 | 97 | 1012.3 |
| 20260507042714 | 44 | 317 | 1.0 | 3.0 | 0.00 | 0.01 | 0.01 | 97 | 1012.2 |
| 20260507042213 | 44 | 297 | 1.0 | 3.0 | 0.00 | 0.01 | 0.01 | 97 | 1012.3 |
| 20260507041503 | 45 | 290 | 2.0 | 4.0 | 0.00 | 0.01 | 0.01 | 97 | 1012.3 |
| 20260507041213 | 45 | 291 | 2.0 | 4.0 | 0.00 | 0.01 | 0.01 | 97 | 1012.3 |
| 20260507040503 | 45 | 291 | 2.0 | 4.0 | 0.00 | 0.01 | 0.01 | 97 | 1012.2 |
| 20260507040215 | 45 | 290 | 2.0 | 4.0 | 0.00 | 0.01 | 0.01 | 97 | 1012.2 |
| 20260507035503 | 45 | 290 | 2.0 | 4.0 | 0.00 | 0.01 | 0.01 | 97 | 1012.2 |
| 20260507035004 | 45 | 292 | 2.0 | 4.0 | 0.00 | 0.01 | 0.01 | 97 | 1012.3 |
| 20260507034503 | 46 | 293 | 2.0 | 4.0 | 0.00 | 0.01 | 0.01 | 97 | 1012.2 |
| 20260507034213 | 46 | 292 | 2.0 | 3.0 | 0.00 | 0.01 | 0.01 | 96 | 1012.2 |
| 20260507033714 | 46 | 292 | 2.0 | 3.0 | 0.00 | 0.01 | 0.01 | 96 | 1012.1 |
| 20260507033004 | 46 | 292 | 2.0 | 3.0 | 0.00 | 0.01 | 0.01 | 97 | 1012.1 |
| 20260507032503 | 46 | 292 | 2.0 | 3.0 | 0.00 | 0.01 | 0.01 | 97 | 1012.2 |
| 20260507032003 | 46 | 292 | 1.0 | 3.0 | 0.00 | 0.01 | 0.01 | 96 | 1012.2 |
| 20260507031504 | 46 | 292 | 1.0 | 2.0 | 0.00 | 0.01 | 0.01 | 96 | 1012.2 |
| 20260507031004 | 46 | 291 | 2.0 | 4.0 | 0.00 | 0.01 | 0.01 | 96 | 1012.2 |
| 20260507030504 | 47 | 290 | 3.0 | 4.0 | 0.00 | 0.01 | 0.01 | 96 | 1012.2 |
| 20260507030215 | 47 | 290 | 2.0 | 4.0 | 0.00 | 0.01 | 0.01 | 96 | 1012.2 |
| 20260507025503 | 47 | 292 | 2.0 | 3.0 | 0.00 | 0.01 | 0.01 | 96 | 1012.2 |
| 20260507025212 | 47 | 291 | 2.0 | 3.0 | 0.00 | 0.01 | 0.01 | 96 | 1012.2 |
| 20260507024503 | 48 | 286 | 1.0 | 2.0 | 0.00 | 0.01 | 0.01 | 96 | 1012.2 |
| 20260507024003 | 48 | 286 | 1.0 | 3.0 | 0.00 | 0.01 | 0.01 | 96 | 1012.2 |
| 20260507023503 | 48 | 287 | 2.0 | 3.0 | 0.00 | 0.01 | 0.01 | 96 | 1012.3 |
| 20260507023004 | 48 | 287 | 1.0 | 3.0 | 0.00 | 0.01 | 0.01 | 96 | 1012.4 |
| 20260507022714 | 48 | 288 | 0.0 | 3.0 | 0.00 | 0.01 | 0.01 | 96 | 1012.4 |
| 20260507022003 | 48 | 288 | 0.0 | 1.0 | 0.00 | 0.01 | 0.01 | 96 | 1012.4 |
| 20260507021714 | 48 | 288 | 0.0 | 2.0 | 0.00 | 0.01 | 0.01 | 96 | 1012.4 |
| 20260507021003 | 48 | 288 | 0.0 | 2.0 | 0.00 | 0.01 | 0.01 | 96 | 1012.4 |
| 20260507020713 | 48 | 288 | 0.0 | 2.0 | 0.00 | 0.01 | 0.01 | 96 | 1012.5 |
| 20260507020005 | 48 | 290 | 2.0 | 4.0 | 0.00 | 0.01 | 0.01 | 96 | 1012.6 |
| 20260507015714 | 47 | 292 | 2.0 | 4.0 | 0.00 | 0.01 | 0.01 | 96 | 1012.5 |
| 20260507015004 | 47 | 297 | 1.0 | 3.0 | 0.00 | 0.01 | 0.01 | 95 | 1012.5 |
| 20260507014504 | 48 | 298 | 1.0 | 3.0 | 0.00 | 0.01 | 0.01 | 96 | 1012.4 |
| 20260507014003 | 48 | 298 | 1.0 | 3.0 | 0.00 | 0.01 | 0.01 | 95 | 1012.5 |
| 20260507013713 | 48 | 298 | 1.0 | 3.0 | 0.00 | 0.01 | 0.01 | 95 | 1012.5 |
| 20260507013004 | 48 | 298 | 1.0 | 2.0 | 0.00 | 0.01 | 0.01 | 95 | 1012.5 |
| 20260507012503 | 49 | 298 | 1.0 | 2.0 | 0.00 | 0.01 | 0.01 | 95 | 1012.6 |
| 20260507012003 | 49 | 298 | 1.0 | 2.0 | 0.00 | 0.01 | 0.01 | 95 | 1012.6 |
| 20260507011503 | 49 | 298 | 1.0 | 2.0 | 0.00 | 0.01 | 0.01 | 95 | 1012.6 |
| 20260507011214 | 49 | 298 | 1.0 | 2.0 | 0.00 | 0.01 | 0.01 | 95 | 1012.7 |
| 20260507010503 | 49 | 298 | 0.0 | 1.0 | 0.01 | 0.01 | 0.01 | 94 | 1012.8 |
| 20260507010004 | 50 | 298 | 1.0 | 2.0 | 0.01 | 0.01 | 0.01 | 94 | 1012.9 |
| 20260507005504 | 50 | 298 | 1.0 | 2.0 | 0.01 | 0.01 | 0.01 | 94 | 1013.0 |
| 20260507005004 | 50 | 298 | 0.0 | 2.0 | 0.01 | 0.01 | 0.01 | 94 | 1013.0 |
| 20260507004713 | 50 | 298 | 0.0 | 2.0 | 0.01 | 0.01 | 0.01 | 94 | 1013.1 |
| 20260507004214 | 50 | 298 | 0.0 | 1.0 | 0.01 | 0.01 | 0.01 | 94 | 1013.1 |
| 20260507003503 | 50 | 0 | 0.0 | 0.0 | 0.01 | 0.01 | 0.01 | 93 | 1013.1 |
| 20260507003004 | 50 | 298 | 1.0 | 3.0 | 0.01 | 0.01 | 0.01 | 93 | 1013.2 |
| 20260507002504 | 50 | 303 | 1.0 | 3.0 | 0.01 | 0.01 | 0.01 | 93 | 1013.3 |
| 20260507002003 | 50 | 305 | 1.0 | 3.0 | 0.01 | 0.02 | 0.01 | 92 | 1013.2 |
| 20260507001504 | 50 | 318 | 1.0 | 3.0 | 0.01 | 0.02 | 0.01 | 92 | 1013.3 |
| 20260507001003 | 51 | 319 | 0.0 | 3.0 | 0.01 | 0.02 | 0.01 | 92 | 1013.3 |
| 20260507000503 | 51 | 323 | 0.0 | 2.0 | 0.00 | 0.01 | 0.00 | 91 | 1013.3 |
| 20260507000214 | 51 | 323 | 0.0 | 2.0 | 0.00 | 0.01 | 0.00 | 91 | 1013.3 |
| 20260506235504 | 51 | 319 | 1.0 | 2.0 | 0.00 | 0.01 | 0.00 | 91 | 1013.4 |
| 20260506235004 | 51 | 316 | 1.0 | 3.0 | 0.00 | 0.01 | 0.00 | 91 | 1013.4 |
| 20260506234714 | 51 | 315 | 1.0 | 3.0 | 0.00 | 0.01 | 0.00 | 91 | 1013.5 |
| 20260506234003 | 51 | 330 | 1.0 | 3.0 | 0.00 | 0.01 | 0.00 | 90 | 1013.6 |
| 20260506233504 | 52 | 322 | 1.0 | 3.0 | 0.00 | 0.01 | 0.00 | 91 | 1013.6 |
| 20260506233004 | 52 | 307 | 1.0 | 5.0 | 0.00 | 0.01 | 0.00 | 91 | 1013.5 |
| 20260506232503 | 52 | 304 | 1.0 | 5.0 | 0.00 | 0.01 | 0.00 | 91 | 1013.5 |
| 20260506232004 | 52 | 287 | 2.0 | 4.0 | 0.00 | 0.01 | 0.00 | 91 | 1013.5 |
| 20260506231504 | 52 | 282 | 2.0 | 4.0 | 0.00 | 0.01 | 0.00 | 91 | 1013.5 |
| 20260506231003 | 52 | 282 | 1.0 | 4.0 | 0.00 | 0.01 | 0.00 | 91 | 1013.5 |
| 20260506230503 | 52 | 285 | 1.0 | 4.0 | 0.00 | 0.01 | 0.00 | 91 | 1013.5 |
| 20260506230004 | 52 | 289 | 2.0 | 4.0 | 0.00 | 0.01 | 0.00 | 92 | 1013.5 |
| 20260506225714 | 52 | 290 | 1.0 | 4.0 | 0.00 | 0.01 | 0.00 | 92 | 1013.4 |
| 20260506225213 | 52 | 295 | 0.0 | 3.0 | 0.00 | 0.01 | 0.00 | 92 | 1013.4 |
| 20260506224714 | 52 | 0 | 0.0 | 0.0 | 0.00 | 0.01 | 0.00 | 92 | 1013.4 |
| 20260506224213 | 52 | 0 | 0.0 | 0.0 | 0.00 | 0.01 | 0.00 | 92 | 1013.4 |
| 20260506223714 | 52 | 296 | 0.0 | 1.0 | 0.00 | 0.01 | 0.00 | 91 | 1013.5 |
| 20260506223215 | 52 | 296 | 0.0 | 1.0 | 0.00 | 0.01 | 0.00 | 91 | 1013.4 |
| 20260506222503 | 52 | 296 | 0.0 | 1.0 | 0.00 | 0.01 | 0.00 | 91 | 1013.4 |
| 20260506222004 | 52 | 301 | 1.0 | 3.0 | 0.00 | 0.01 | 0.00 | 91 | 1013.4 |
| 20260506221504 | 53 | 308 | 1.0 | 3.0 | 0.00 | 0.01 | 0.00 | 91 | 1013.4 |
| 20260506221003 | 53 | 319 | 0.0 | 3.0 | 0.00 | 0.01 | 0.00 | 90 | 1013.4 |
| 20260506220503 | 53 | 320 | 0.0 | 1.0 | 0.00 | 0.01 | 0.00 | 90 | 1013.4 |
| 20260506220217 | 53 | 320 | 0.0 | 1.0 | 0.00 | 0.01 | 0.00 | 90 | 1013.4 |
| 20260506215714 | 53 | 320 | 0.0 | 2.0 | 0.00 | 0.01 | 0.01 | 89 | 1013.4 |
| 20260506215003 | 53 | 320 | 1.0 | 2.0 | 0.00 | 0.01 | 0.01 | 89 | 1013.5 |
| 20260506214503 | 53 | 320 | 0.0 | 2.0 | 0.00 | 0.01 | 0.01 | 89 | 1013.5 |
| 20260506214003 | 53 | 320 | 0.0 | 1.0 | 0.00 | 0.01 | 0.01 | 90 | 1013.5 |
| 20260506213503 | 53 | 320 | 0.0 | 2.0 | 0.00 | 0.01 | 0.01 | 89 | 1013.4 |
| 20260506213215 | 53 | 320 | 0.0 | 2.0 | 0.00 | 0.01 | 0.01 | 89 | 1013.5 |
| 20260506212503 | 53 | 301 | 0.0 | 2.0 | 0.00 | 0.01 | 0.01 | 89 | 1013.4 |
| 20260506212003 | 53 | 301 | 0.0 | 2.0 | 0.00 | 0.01 | 0.01 | 89 | 1013.4 |
| 20260506211503 | 53 | 0 | 0.0 | 0.0 | 0.00 | 0.01 | 0.01 | 89 | 1013.4 |
| 20260506211003 | 53 | 0 | 0.0 | 0.0 | 0.00 | 0.01 | 0.01 | 89 | 1013.3 |
| 20260506210714 | 53 | 0 | 0.0 | 0.0 | 0.00 | 0.01 | 0.01 | 89 | 1013.3 |
| 20260506210004 | 53 | 0 | 0.0 | 0.0 | 0.00 | 0.01 | 0.01 | 89 | 1013.2 |
| 20260506205503 | 53 | 277 | 0.0 | 1.0 | 0.00 | 0.01 | 0.01 | 89 | 1013.2 |
| 20260506205004 | 53 | 277 | 0.0 | 2.0 | 0.00 | 0.01 | 0.01 | 89 | 1013.2 |
| 20260506204503 | 53 | 277 | 0.0 | 2.0 | 0.00 | 0.01 | 0.01 | 89 | 1013.2 |
| 20260506204003 | 53 | 277 | 0.0 | 1.0 | 0.00 | 0.01 | 0.01 | 89 | 1013.2 |
| 20260506203503 | 53 | 277 | 0.0 | 1.0 | 0.00 | 0.01 | 0.01 | 89 | 1013.1 |
| 20260506203004 | 53 | 277 | 1.0 | 3.0 | 0.00 | 0.01 | 0.01 | 89 | 1013.0 |
| 20260506202503 | 53 | 277 | 1.0 | 3.0 | 0.00 | 0.01 | 0.01 | 89 | 1012.9 |
| 20260506202003 | 53 | 277 | 0.0 | 3.0 | 0.00 | 0.01 | 0.01 | 89 | 1012.9 |
| 20260506201713 | 53 | 277 | 0.0 | 2.0 | 0.00 | 0.01 | 0.01 | 89 | 1012.9 |
| 20260506201004 | 53 | 277 | 1.0 | 2.0 | 0.00 | 0.01 | 0.01 | 89 | 1012.7 |
| 20260506200713 | 53 | 277 | 1.0 | 3.0 | 0.00 | 0.01 | 0.01 | 89 | 1012.7 |
| 20260506200004 | 53 | 277 | 3.0 | 4.0 | 0.00 | 0.01 | 0.01 | 89 | 1012.6 |
| 20260506195503 | 53 | 279 | 2.0 | 4.0 | 0.00 | 0.01 | 0.01 | 89 | 1012.6 |
| 20260506195003 | 53 | 281 | 1.0 | 3.0 | 0.00 | 0.01 | 0.01 | 88 | 1012.5 |
| 20260506194713 | 53 | 281 | 1.0 | 3.0 | 0.00 | 0.01 | 0.01 | 88 | 1012.4 |
| 20260506194003 | 53 | 271 | 1.0 | 4.0 | 0.00 | 0.01 | 0.01 | 88 | 1012.3 |
| 20260506193503 | 53 | 281 | 1.0 | 4.0 | 0.00 | 0.01 | 0.01 | 87 | 1012.1 |
| 20260506193004 | 53 | 286 | 1.0 | 3.0 | 0.00 | 0.01 | 0.01 | 87 | 1012.0 |
| 20260506192503 | 54 | 286 | 1.0 | 3.0 | 0.00 | 0.01 | 0.01 | 86 | 1012.0 |
| 20260506192004 | 54 | 288 | 2.0 | 6.0 | 0.00 | 0.01 | 0.01 | 86 | 1011.9 |
| 20260506191503 | 54 | 284 | 2.0 | 6.0 | 0.00 | 0.01 | 0.01 | 85 | 1012.0 |
| 20260506191003 | 54 | 280 | 1.0 | 4.0 | 0.00 | 0.01 | 0.01 | 85 | 1012.0 |
| 20260506190503 | 54 | 281 | 1.0 | 3.0 | 0.00 | 0.01 | 0.01 | 84 | 1012.0 |
| 20260506190214 | 54 | 284 | 1.0 | 4.0 | 0.00 | 0.01 | 0.01 | 84 | 1012.0 |
| 20260506185503 | 54 | 295 | 2.0 | 6.0 | 0.00 | 0.01 | 0.01 | 84 | 1011.8 |
| 20260506185214 | 54 | 297 | 2.0 | 6.0 | 0.00 | 0.02 | 0.01 | 83 | 1011.8 |
| 20260506184503 | 54 | 293 | 2.0 | 4.0 | 0.00 | 0.03 | 0.01 | 83 | 1011.8 |
| 20260506184004 | 54 | 294 | 2.0 | 4.0 | 0.00 | 0.04 | 0.01 | 83 | 1011.7 |
| 20260506183713 | 54 | 294 | 1.0 | 4.0 | 0.00 | 0.04 | 0.01 | 83 | 1011.6 |
| 20260506183005 | 54 | 283 | 2.0 | 4.0 | 0.00 | 0.04 | 0.01 | 83 | 1011.5 |
| 20260506182503 | 54 | 275 | 1.0 | 4.0 | 0.00 | 0.04 | 0.01 | 83 | 1011.4 |
| 20260506182003 | 54 | 305 | 1.0 | 3.0 | 0.00 | 0.04 | 0.01 | 83 | 1011.3 |
| 20260506181713 | 54 | 305 | 1.0 | 3.0 | 0.00 | 0.04 | 0.01 | 83 | 1011.3 |
| 20260506181003 | 54 | 297 | 1.0 | 4.0 | 0.00 | 0.04 | 0.01 | 82 | 1011.2 |
| 20260506180503 | 54 | 297 | 2.0 | 4.0 | 0.00 | 0.04 | 0.01 | 82 | 1011.1 |
| 20260506180005 | 54 | 298 | 1.0 | 4.0 | 0.00 | 0.04 | 0.01 | 82 | 1011.1 |
| 20260506175504 | 54 | 175 | 1.0 | 4.0 | 0.00 | 0.04 | 0.01 | 82 | 1010.9 |
| 20260506175213 | 54 | 163 | 1.0 | 4.0 | 0.00 | 0.04 | 0.01 | 82 | 1010.9 |
| 20260506174504 | 54 | 149 | 1.0 | 4.0 | 0.00 | 0.04 | 0.01 | 82 | 1010.9 |
| 20260506174213 | 54 | 152 | 1.0 | 4.0 | 0.00 | 0.04 | 0.01 | 82 | 1010.9 |
| 20260506173503 | 54 | 182 | 3.0 | 8.0 | 0.00 | 0.04 | 0.01 | 82 | 1010.7 |
| 20260506173004 | 54 | 175 | 4.0 | 8.0 | 0.00 | 0.04 | 0.01 | 82 | 1010.7 |
| 20260506172714 | 54 | 164 | 4.0 | 8.0 | 0.00 | 0.04 | 0.01 | 82 | 1010.6 |
| 20260506172004 | 54 | 137 | 5.0 | 12.0 | 0.00 | 0.04 | 0.01 | 82 | 1010.6 |
| 20260506171714 | 54 | 131 | 6.0 | 12.0 | 0.00 | 0.04 | 0.01 | 82 | 1010.6 |
| 20260506171004 | 54 | 126 | 8.0 | 14.0 | 0.00 | 0.04 | 0.01 | 81 | 1010.4 |
| 20260506170503 | 54 | 129 | 8.0 | 14.0 | 0.00 | 0.04 | 0.01 | 81 | 1010.4 |
| 20260506170004 | 55 | 127 | 8.0 | 13.0 | 0.00 | 0.04 | 0.01 | 81 | 1010.2 |
| 20260506165503 | 55 | 120 | 9.0 | 16.0 | 0.00 | 0.04 | 0.01 | 81 | 1010.3 |
| 20260506165003 | 56 | 110 | 8.0 | 16.0 | 0.00 | 0.04 | 0.01 | 81 | 1010.2 |
| 20260506164503 | 56 | 102 | 7.0 | 15.0 | 0.00 | 0.04 | 0.01 | 80 | 1010.0 |
| 20260506164003 | 57 | 98 | 6.0 | 13.0 | 0.00 | 0.04 | 0.01 | 80 | 1010.1 |
| 20260506163503 | 57 | 95 | 7.0 | 15.0 | 0.00 | 0.04 | 0.01 | 80 | 1009.8 |
| 20260506163004 | 58 | 107 | 9.0 | 15.0 | 0.00 | 0.04 | 0.01 | 80 | 1009.8 |
| 20260506162504 | 58 | 119 | 10.0 | 18.0 | 0.00 | 0.04 | 0.01 | 81 | 1009.8 |
| 20260506162003 | 58 | 112 | 10.0 | 18.0 | 0.00 | 0.04 | 0.01 | 81 | 1009.7 |
| 20260506161504 | 59 | 98 | 10.0 | 17.0 | 0.00 | 0.04 | 0.01 | 80 | 1009.6 |
| 20260506161003 | 59 | 106 | 10.0 | 17.0 | 0.00 | 0.04 | 0.01 | 80 | 1009.6 |
| 20260506160504 | 59 | 120 | 11.0 | 16.0 | 0.00 | 0.04 | 0.01 | 79 | 1009.5 |
| 20260506160215 | 59 | 123 | 11.0 | 17.0 | 0.00 | 0.04 | 0.01 | 79 | 1009.4 |
| 20260506155503 | 60 | 128 | 11.0 | 19.0 | 0.00 | 0.04 | 0.01 | 78 | 1009.4 |
| 20260506155003 | 59 | 134 | 11.0 | 19.0 | 0.00 | 0.04 | 0.01 | 79 | 1009.5 |
| 20260506154714 | 60 | 131 | 11.0 | 18.0 | 0.00 | 0.04 | 0.01 | 78 | 1009.5 |
| 20260506154003 | 59 | 125 | 12.0 | 18.0 | 0.00 | 0.04 | 0.01 | 78 | 1009.5 |
| 20260506153503 | 59 | 124 | 11.0 | 18.0 | 0.00 | 0.04 | 0.01 | 79 | 1009.4 |
| 20260506153004 | 60 | 113 | 11.0 | 19.0 | 0.00 | 0.04 | 0.01 | 78 | 1009.3 |
| 20260506152504 | 60 | 111 | 12.0 | 19.0 | 0.00 | 0.04 | 0.01 | 77 | 1009.3 |
| 20260506152003 | 60 | 125 | 13.0 | 19.0 | 0.00 | 0.04 | 0.01 | 77 | 1009.3 |
| 20260506151503 | 59 | 131 | 12.0 | 19.0 | 0.00 | 0.04 | 0.01 | 77 | 1009.4 |
| 20260506151003 | 60 | 127 | 11.0 | 19.0 | 0.00 | 0.04 | 0.01 | 76 | 1009.3 |